,,Stat1,,Stat2,,Stat3,,Stat4,,Wind1,,Wind1,
time,status,PR1M_SUM,status,RH1M_AVG,status,SR1M_AVG,status,TA1M_AVG,status,W1dAve1m,status,W1sAve1m,
1999-11-16, 00:01:00,VALID,0,VALID,96.0189,VALID,-0.101885,VALID,19.0711,VALID,284,VALID,0.82472,
1999-11-16, 00:02:00,VALID,0,VALID,96.0036,VALID,-0.101885,VALID,19.0547,VALID,268,VALID,0.745271,
1999-11-16, 00:03:00,VALID,0,VALID,96.0189,VALID,-0.0509425,VALID,19.0515,VALID,246,VALID,0.889423,
1999-11-16, 00:04:00,VALID,0,VALID,95.7785,VALID,-0.101885,VALID,19.045,VALID,310,VALID,1.10797,
1999-11-16, 00:05:00,VALID,0,VALID,95.3843,VALID,-0.0679233,VALID,19.048,VALID,344,VALID,1.8049,
1999-11-16, 00:06:00,VALID,0,VALID,95.514,VALID,-0.0849042,VALID,19.0774,VALID,43,VALID,0.645032,
1999-11-16, 00:07:00,VALID,0,VALID,95.5433,VALID,-0.0679233,VALID,19.0707,VALID,267,VALID,0.476974,
1999-11-16, 00:08:00,VALID,0,VALID,95.8192,VALID,-0.0849042,VALID,19.0873,VALID,124,VALID,0.420847,
1999-11-16, 00:09:00,VALID,0,VALID,95.9591,VALID,-0.0679233,VALID,19.0707,VALID,122,VALID,0.581836,
1999-11-16, 00:10:00,VALID,0,VALID,96.0443,VALID,-0.0679233,VALID,19.0547,VALID,107,VALID,1.6947,
1999-11-16, 00:11:00,VALID,0,VALID,96.0417,VALID,-0.0509425,VALID,19.0349,VALID,106,VALID,1.59663,
1999-11-16, 00:12:00,VALID,0,VALID,96.1575,VALID,-0.0849042,VALID,19.0291,VALID,56,VALID,1.33027,
1999-11-16, 00:13:00,VALID,0,VALID,96.2516,VALID,-0.0849042,VALID,19.0222,VALID,356,VALID,0.928632,
1999-11-16, 00:14:00,VALID,0,VALID,95.7493,VALID,-0.0679233,VALID,19.0159,VALID,64,VALID,1.15892,
1999-11-16, 00:15:00,VALID,0,VALID,95.6272,VALID,-0.0679233,VALID,19.0286,VALID,222,VALID,0.719131,
1999-11-16, 00:16:01,VALID,0,VALID,95.6476,VALID,-0.0849042,VALID,19.0418,VALID,224,VALID,1.21516,
1999-11-16, 00:17:00,VALID,0,VALID,95.5013,VALID,-0.0339617,VALID,19.0443,VALID,259,VALID,1.14883,
1999-11-16, 00:18:00,VALID,0,VALID,95.7429,VALID,0.0339617,VALID,19.0503,VALID,167,VALID,0.970395,
1999-11-16, 00:19:00,VALID,0,VALID,95.8434,VALID,0.0169808,VALID,19.0404,VALID,169,VALID,0.634663,
1999-11-16, 00:20:00,VALID,0,VALID,95.6895,VALID,0,VALID,19.0535,VALID,270,VALID,0.428906,
1999-11-16, 00:21:00,VALID,0,VALID,95.8154,VALID,0.0339617,VALID,19.0503,VALID,163,VALID,0.4394,
1999-11-16, 00:22:00,VALID,0,VALID,95.7417,VALID,0.0509425,VALID,19.0339,VALID,233,VALID,0.428043,
1999-11-16, 00:23:00,VALID,0,VALID,95.762,VALID,0,VALID,19.0307,VALID,138,VALID,0.779154,
1999-11-16, 00:24:00,VALID,0,VALID,96.0417,VALID,0.0509425,VALID,19.024,VALID,127,VALID,0.658573,
1999-11-16, 00:25:00,VALID,0,VALID,95.9133,VALID,0.0509425,VALID,19.0205,VALID,205,VALID,0.317969,
1999-11-16, 00:26:00,VALID,0,VALID,95.7213,VALID,0.0339617,VALID,19.021,VALID,209,VALID,1.23252,
1999-11-16, 00:27:00,VALID,0,VALID,96.2312,VALID,0.0169808,VALID,19.0309,VALID,102,VALID,1.41324,
1999-11-16, 00:28:01,VALID,0,VALID,96.2312,VALID,0.0339617,VALID,19.0078,VALID,133,VALID,0.88125,
1999-11-16, 00:29:00,VALID,0,VALID,96.2045,VALID,0.0169808,VALID,18.9886,VALID,159,VALID,0.677787,
1999-11-16, 00:30:00,VALID,0,VALID,96.0481,VALID,0.0169808,VALID,18.9889,VALID,216,VALID,0.438117,
1999-11-16, 00:31:00,VALID,0,VALID,95.823,VALID,0,VALID,18.9859,VALID,316,VALID,0.601944,
1999-11-16, 00:32:00,VALID,0,VALID,95.7773,VALID,0.0169808,VALID,18.9882,VALID,177,VALID,0.420186,
1999-11-16, 00:33:00,VALID,0,VALID,95.7633,VALID,0.0169808,VALID,18.9921,VALID,187,VALID,1.09805,
1999-11-16, 00:34:00,VALID,0,VALID,96.0634,VALID,0.0339617,VALID,18.9951,VALID,110,VALID,1.5035,
1999-11-16, 00:35:00,VALID,0,VALID,96.1664,VALID,0,VALID,18.9762,VALID,106,VALID,0.995271,
1999-11-16, 00:36:00,VALID,0,VALID,96.3507,VALID,0.0339617,VALID,18.966,VALID,55,VALID,1.05332,
1999-11-16, 00:37:00,VALID,0,VALID,96.3965,VALID,0,VALID,18.9759,VALID,302,VALID,0.790752,
1999-11-16, 00:38:00,VALID,0,VALID,96.2147,VALID,0,VALID,18.9662,VALID,255,VALID,0.656044,
1999-11-16, 00:39:01,VALID,0,VALID,96.0799,VALID,0.0169808,VALID,18.9759,VALID,21,VALID,1.08213,
1999-11-16, 00:40:00,VALID,0,VALID,96.2986,VALID,0.0169808,VALID,18.9822,VALID,77,VALID,1.3144,
1999-11-16, 00:41:00,VALID,0,VALID,96.3991,VALID,0.0169808,VALID,18.9822,VALID,95,VALID,0.287695,
1999-11-16, 00:42:00,VALID,0,VALID,96.338,VALID,0.0339617,VALID,18.9785,VALID,142,VALID,0.43236,
1999-11-16, 00:43:00,VALID,0,VALID,96.3393,VALID,0,VALID,18.9854,VALID,132,VALID,0.739309,
1999-11-16, 00:44:00,VALID,0,VALID,96.4016,VALID,0,VALID,18.9789,VALID,198,VALID,0.995508,
1999-11-16, 00:45:00,VALID,0,VALID,96.305,VALID,0.0339617,VALID,18.9692,VALID,175,VALID,0.997889,
1999-11-16, 00:46:00,VALID,0,VALID,96.4779,VALID,0.0339617,VALID,18.9727,VALID,176,VALID,0.686883,
1999-11-16, 00:47:00,VALID,0,VALID,96.6102,VALID,0,VALID,18.9667,VALID,202,VALID,0.481707,
1999-11-16, 00:48:00,VALID,0,VALID,96.7475,VALID,-0.0169808,VALID,18.9695,VALID,109,VALID,0.825802,
1999-11-16, 00:49:00,VALID,0,VALID,96.6763,VALID,-0.0339617,VALID,18.9536,VALID,298,VALID,0.293945,
1999-11-16, 00:50:01,VALID,0,VALID,96.5822,VALID,0.0169808,VALID,18.9533,VALID,241,VALID,0.527138,
1999-11-16, 00:51:00,VALID,0,VALID,96.6114,VALID,-0.0339617,VALID,18.9635,VALID,158,VALID,0.806127,
1999-11-16, 00:52:00,VALID,0,VALID,96.7933,VALID,0,VALID,18.9632,VALID,99,VALID,1.35645,
1999-11-16, 00:53:00,VALID,0,VALID,96.8429,VALID,0,VALID,18.9633,VALID,80,VALID,0.608319,
1999-11-16, 00:54:00,VALID,0,VALID,96.7271,VALID,0,VALID,18.9595,VALID,248,VALID,0.351974,
1999-11-16, 00:55:00,VALID,0,VALID,96.6814,VALID,0,VALID,18.9734,VALID,41,VALID,0.328887,
1999-11-16, 00:56:00,VALID,0,VALID,96.8429,VALID,-0.0339617,VALID,18.9662,VALID,132,VALID,0.675042,
1999-11-16, 00:57:00,VALID,0,VALID,96.9052,VALID,-0.0339617,VALID,18.9757,VALID,348,VALID,0.455078,
1999-11-16, 00:58:00,VALID,0,VALID,96.7488,VALID,0,VALID,18.9722,VALID,241,VALID,0.171053,
1999-11-16, 00:59:00,VALID,0,VALID,96.9039,VALID,0,VALID,18.9856,VALID,135,VALID,0.467722,
1999-11-16, 01:00:00,VALID,0,VALID,97.0044,VALID,-0.0169808,VALID,18.9856,VALID,183,VALID,0.471875,
1999-11-16, 01:01:01,VALID,0,VALID,97.0031,VALID,0,VALID,18.9921,VALID,255,VALID,0.51647,
1999-11-16, 01:02:00,VALID,0,VALID,96.8861,VALID,-0.0509425,VALID,19.0023,VALID,122,VALID,0.680304,
1999-11-16, 01:03:00,VALID,0,VALID,97.0883,VALID,-0.0339617,VALID,19.0023,VALID,24,VALID,0.348323,
1999-11-16, 01:04:00,VALID,0,VALID,96.9446,VALID,-0.0169808,VALID,18.9831,VALID,263,VALID,0.271537,
1999-11-16, 01:05:00,VALID,0,VALID,97.0984,VALID,-0.0169808,VALID,18.9697,VALID,141,VALID,0.498242,
1999-11-16, 01:06:00,VALID,0,VALID,97.2854,VALID,-0.0169808,VALID,18.9637,VALID,115,VALID,0.940378,
1999-11-16, 01:07:00,VALID,0,VALID,97.4952,VALID,-0.0339617,VALID,18.9406,VALID,358,VALID,0.587582,
1999-11-16, 01:08:00,VALID,0,VALID,97.4914,VALID,-0.0169808,VALID,18.9212,VALID,229,VALID,0.531445,
1999-11-16, 01:09:00,VALID,0,VALID,97.3248,VALID,-0.0169808,VALID,18.9051,VALID,275,VALID,0.983108,
1999-11-16, 01:10:00,VALID,0,VALID,97.3057,VALID,-0.0509425,VALID,18.9245,VALID,11,VALID,1.35074,
1999-11-16, 01:11:00,VALID,0,VALID,97.3273,VALID,-0.0169808,VALID,18.9476,VALID,246,VALID,0.513529,
1999-11-16, 01:12:01,VALID,0,VALID,97.3591,VALID,0,VALID,18.9565,VALID,155,VALID,0.527027,
1999-11-16, 01:13:00,VALID,0,VALID,97.059,VALID,0,VALID,18.9473,VALID,184,VALID,0.422656,
1999-11-16, 01:14:00,VALID,0,VALID,97.1124,VALID,0,VALID,18.9607,VALID,175,VALID,0.368421,
1999-11-16, 01:15:00,VALID,0,VALID,97.1608,VALID,0,VALID,18.9508,VALID,239,VALID,0.413857,
1999-11-16, 01:16:00,VALID,0,VALID,97.3718,VALID,-0.0339617,VALID,18.9468,VALID,126,VALID,0.363867,
1999-11-16, 01:17:00,VALID,0,VALID,97.3019,VALID,0,VALID,18.9376,VALID,141,VALID,0,
1999-11-16, 01:18:00,VALID,0,VALID,97.4723,VALID,0,VALID,18.9374,VALID,80,VALID,0.00431743,
1999-11-16, 01:19:00,VALID,0,VALID,97.4443,VALID,0,VALID,18.9242,VALID,121,VALID,0.805069,
1999-11-16, 01:20:00,VALID,0,VALID,97.3642,VALID,-0.0169808,VALID,18.9217,VALID,262,VALID,0.309122,
1999-11-16, 01:21:00,VALID,0,VALID,97.466,VALID,-0.0339617,VALID,18.918,VALID,93,VALID,0.756641,
1999-11-16, 01:22:00,VALID,0,VALID,97.5499,VALID,0,VALID,18.9247,VALID,28,VALID,0.728002,
1999-11-16, 01:23:01,VALID,0,VALID,97.6262,VALID,0,VALID,18.9247,VALID,93,VALID,1.30037,
1999-11-16, 01:24:00,VALID,0,VALID,97.719,VALID,-0.0339617,VALID,18.9279,VALID,334,VALID,0.539063,
1999-11-16, 01:25:00,VALID,0,VALID,97.6986,VALID,-0.0169808,VALID,18.9284,VALID,150,VALID,0.63978,
1999-11-16, 01:26:00,VALID,0,VALID,97.8449,VALID,0,VALID,18.9344,VALID,163,VALID,0.452097,
1999-11-16, 01:27:00,VALID,0,VALID,97.6808,VALID,0,VALID,18.9148,VALID,173,VALID,0.0278201,
1999-11-16, 01:28:00,VALID,0,VALID,97.5995,VALID,0,VALID,18.9207,VALID,197,VALID,0.225507,
1999-11-16, 01:29:00,VALID,0,VALID,97.5524,VALID,-0.0339617,VALID,18.9275,VALID,222,VALID,0.419727,
1999-11-16, 01:30:00,VALID,0,VALID,97.4138,VALID,-0.0169808,VALID,18.9247,VALID,52,VALID,0.577714,
1999-11-16, 01:31:00,VALID,0,VALID,97.6185,VALID,-0.0169808,VALID,18.9374,VALID,150,VALID,0.506168,
1999-11-16, 01:32:00,VALID,0,VALID,97.5117,VALID,-0.0169808,VALID,18.918,VALID,185,VALID,0.958789,
1999-11-16, 01:33:00,VALID,0,VALID,97.663,VALID,0,VALID,18.9307,VALID,88,VALID,1.23501,
1999-11-16, 01:34:00,VALID,0,VALID,97.658,VALID,0.0169808,VALID,18.921,VALID,36,VALID,0.623355,
1999-11-16, 01:35:00,VALID,0,VALID,97.6236,VALID,-0.0169808,VALID,18.9113,VALID,167,VALID,0.252858,
1999-11-16, 01:36:00,VALID,0,VALID,97.6351,VALID,-0.0169808,VALID,18.9249,VALID,95,VALID,1.93138,
1999-11-16, 01:37:00,VALID,0,VALID,97.4049,VALID,-0.0339617,VALID,18.9115,VALID,358,VALID,0.739844,
1999-11-16, 01:38:00,VALID,0,VALID,97.41,VALID,0,VALID,18.924,VALID,64,VALID,0.942434,
1999-11-16, 01:39:00,VALID,0,VALID,97.3973,VALID,-0.0339617,VALID,18.9274,VALID,126,VALID,1.18997,
1999-11-16, 01:40:00,VALID,0,VALID,97.2421,VALID,-0.0169808,VALID,18.9411,VALID,194,VALID,0.269922,
1999-11-16, 01:41:00,VALID,0,VALID,97.3108,VALID,0,VALID,18.9637,VALID,214,VALID,0.337416,
1999-11-16, 01:42:00,VALID,0,VALID,97.1252,VALID,-0.0509425,VALID,18.9536,VALID,338,VALID,1.00164,
1999-11-16, 01:43:00,VALID,0,VALID,97.0285,VALID,0,VALID,18.963,VALID,48,VALID,0.615473,
1999-11-16, 01:44:01,VALID,0,VALID,97.0412,VALID,-0.0509425,VALID,18.9861,VALID,152,VALID,0,
1999-11-16, 01:45:00,VALID,0,VALID,97.0489,VALID,0,VALID,18.9856,VALID,197,VALID,0,
1999-11-16, 01:46:00,VALID,0,VALID,97.045,VALID,-0.0509425,VALID,18.9958,VALID,235,VALID,0.490234,
1999-11-16, 01:47:00,VALID,0,VALID,97.0717,VALID,0.0169808,VALID,18.9916,VALID,232,VALID,0.663035,
1999-11-16, 01:48:00,VALID,0,VALID,97.087,VALID,0.0679233,VALID,18.9976,VALID,150,VALID,0.371875,
1999-11-16, 01:49:00,VALID,0,VALID,97.1506,VALID,0.0679233,VALID,18.9879,VALID,238,VALID,0.33277,
1999-11-16, 01:50:00,VALID,0,VALID,97.3668,VALID,0.101885,VALID,18.9971,VALID,252,VALID,0.0481086,
1999-11-16, 01:51:00,VALID,0,VALID,97.4227,VALID,0.0849042,VALID,19.0036,VALID,235,VALID,0.429688,
1999-11-16, 01:52:00,VALID,0,VALID,97.3502,VALID,0.0849042,VALID,18.9971,VALID,76,VALID,1.072,
1999-11-16, 01:53:00,VALID,0,VALID,97.3388,VALID,0.0849042,VALID,18.9805,VALID,246,VALID,0.470898,
1999-11-16, 01:54:00,VALID,0,VALID,97.4291,VALID,0.101885,VALID,18.9777,VALID,136,VALID,0.712171,
1999-11-16, 01:55:00,VALID,0,VALID,97.5194,VALID,0.101885,VALID,18.9815,VALID,123,VALID,0.351563,
1999-11-16, 01:56:00,VALID,0,VALID,97.6262,VALID,0.0849042,VALID,18.975,VALID,149,VALID,0.410937,
1999-11-16, 01:57:00,VALID,0,VALID,97.719,VALID,0.101885,VALID,18.971,VALID,192,VALID,0.297086,
1999-11-16, 01:58:00,VALID,0,VALID,97.6452,VALID,0.0849042,VALID,18.9586,VALID,318,VALID,0.547903,
1999-11-16, 01:59:00,VALID,0,VALID,97.7126,VALID,0.101885,VALID,18.9489,VALID,68,VALID,0.858994,
1999-11-16, 02:00:00,VALID,0,VALID,97.8729,VALID,0.0849042,VALID,18.965,VALID,66,VALID,0.160051,
1999-11-16, 02:01:00,VALID,0,VALID,97.8462,VALID,0.101885,VALID,18.9422,VALID,334,VALID,0.692383,
1999-11-16, 02:02:00,VALID,0,VALID,97.9352,VALID,0.0339617,VALID,18.9429,VALID,86,VALID,0.866365,
1999-11-16, 02:03:00,VALID,0,VALID,98.0255,VALID,0,VALID,18.9498,VALID,350,VALID,0.577097,
1999-11-16, 02:04:00,VALID,0,VALID,98.0077,VALID,0,VALID,18.9498,VALID,292,VALID,0.114063,
1999-11-16, 02:05:00,VALID,0,VALID,98.0636,VALID,0,VALID,18.9563,VALID,141,VALID,0.462627,
1999-11-16, 02:06:00,VALID,0,VALID,98.1488,VALID,0,VALID,18.9792,VALID,78,VALID,0.478413,
1999-11-16, 02:07:00,VALID,0,VALID,98.1412,VALID,0,VALID,18.9854,VALID,8,VALID,0.656822,
1999-11-16, 02:08:00,VALID,0,VALID,98.0102,VALID,-0.0169808,VALID,18.966,VALID,300,VALID,1.43856,
1999-11-16, 02:09:00,VALID,0,VALID,98.0013,VALID,0,VALID,18.9374,VALID,306,VALID,1.74297,
1999-11-16, 02:10:00,VALID,0,VALID,98.0547,VALID,-0.0679233,VALID,18.9371,VALID,14,VALID,0.973684,
1999-11-16, 02:11:00,VALID,0,VALID,98.1157,VALID,-0.0339617,VALID,18.9439,VALID,53,VALID,0.943257,
1999-11-16, 02:12:00,VALID,0,VALID,98.1463,VALID,0,VALID,18.9441,VALID,109,VALID,0.408594,
1999-11-16, 02:13:00,VALID,0,VALID,98.1272,VALID,0,VALID,18.9501,VALID,286,VALID,0.695946,
1999-11-16, 02:14:00,VALID,0,VALID,98.1844,VALID,-0.0169808,VALID,18.957,VALID,68,VALID,0.862253,
1999-11-16, 02:15:00,VALID,0,VALID,98.2747,VALID,-0.0169808,VALID,18.9692,VALID,164,VALID,0.570122,
1999-11-16, 02:16:01,VALID,0,VALID,98.248,VALID,-0.0339617,VALID,18.9792,VALID,247,VALID,0.682432,
1999-11-16, 02:17:00,VALID,0,VALID,98.2442,VALID,-0.0169808,VALID,18.9563,VALID,304,VALID,0.628125,
1999-11-16, 02:18:00,VALID,0,VALID,98.3599,VALID,0,VALID,18.9729,VALID,104,VALID,1.37788,
1999-11-16, 02:19:00,VALID,0,VALID,98.4413,VALID,-0.0339617,VALID,18.9834,VALID,85,VALID,1.03803,
1999-11-16, 02:20:00,VALID,0,VALID,98.5163,VALID,-0.0339617,VALID,18.9729,VALID,54,VALID,1.26523,
1999-11-16, 02:21:00,VALID,0.2,VALID,98.5354,VALID,-0.0169808,VALID,18.9506,VALID,281,VALID,0.596917,
1999-11-16, 02:22:00,VALID,0,VALID,98.5621,VALID,0,VALID,18.9439,VALID,252,VALID,0.751439,
1999-11-16, 02:23:00,VALID,0,VALID,98.5824,VALID,-0.0169808,VALID,18.9113,VALID,326,VALID,0.745236,
1999-11-16, 02:24:00,VALID,0,VALID,98.6142,VALID,-0.0679233,VALID,18.8919,VALID,349,VALID,0.780405,
1999-11-16, 02:25:00,VALID,0,VALID,98.721,VALID,-0.0169808,VALID,18.8854,VALID,28,VALID,1.50234,
1999-11-16, 02:26:00,VALID,0,VALID,98.7337,VALID,0,VALID,18.8764,VALID,47,VALID,0.835115,
1999-11-16, 02:27:00,VALID,0,VALID,98.8367,VALID,0,VALID,18.8596,VALID,175,VALID,1.14782,
1999-11-16, 02:28:00,VALID,0,VALID,98.899,VALID,-0.0169808,VALID,18.866,VALID,252,VALID,0.860742,
1999-11-16, 02:29:00,VALID,0,VALID,98.8622,VALID,0,VALID,18.8399,VALID,338,VALID,1.7367,
1999-11-16, 02:30:00,VALID,0,VALID,98.9219,VALID,-0.0169808,VALID,18.8406,VALID,346,VALID,1.21135,
1999-11-16, 02:31:00,VALID,0,VALID,98.9715,VALID,-0.0339617,VALID,18.8439,VALID,287,VALID,0.129002,
1999-11-16, 02:32:00,VALID,0,VALID,99.0923,VALID,-0.0169808,VALID,18.8637,VALID,98,VALID,0.976563,
1999-11-16, 02:33:00,VALID,0.2,VALID,99.0822,VALID,-0.0339617,VALID,18.8536,VALID,133,VALID,1.00547,
1999-11-16, 02:34:00,VALID,0,VALID,99.0707,VALID,0,VALID,18.8471,VALID,232,VALID,0.616571,
1999-11-16, 02:35:00,VALID,0,VALID,99.0898,VALID,-0.0339617,VALID,18.8379,VALID,323,VALID,1.39823,
1999-11-16, 02:36:00,VALID,0,VALID,99.1712,VALID,-0.0169808,VALID,18.8339,VALID,81,VALID,0.794922,
1999-11-16, 02:37:00,VALID,0,VALID,99.1699,VALID,-0.0339617,VALID,18.8215,VALID,140,VALID,0.475084,
1999-11-16, 02:38:00,VALID,0,VALID,99.1864,VALID,-0.0339617,VALID,18.8115,VALID,108,VALID,0.727385,
1999-11-16, 02:39:00,VALID,0,VALID,99.2322,VALID,-0.0509425,VALID,18.7984,VALID,176,VALID,0.619284,
1999-11-16, 02:40:00,VALID,0,VALID,99.2551,VALID,-0.0679233,VALID,18.7956,VALID,259,VALID,0.568623,
1999-11-16, 02:41:00,VALID,0,VALID,99.3428,VALID,-0.0339617,VALID,18.8185,VALID,73,VALID,0.598047,
1999-11-16, 02:42:00,VALID,0,VALID,99.4001,VALID,-0.0339617,VALID,18.8409,VALID,269,VALID,0.265419,
1999-11-16, 02:43:00,VALID,0,VALID,99.3759,VALID,-0.0169808,VALID,18.8381,VALID,215,VALID,0.932155,
1999-11-16, 02:44:00,VALID,0,VALID,99.3339,VALID,-0.0339617,VALID,18.7991,VALID,282,VALID,1.60254,
1999-11-16, 02:45:00,VALID,0,VALID,99.381,VALID,-0.0509425,VALID,18.7924,VALID,13,VALID,1.00633,
1999-11-16, 02:46:00,VALID,0,VALID,99.4179,VALID,-0.0339617,VALID,18.7956,VALID,133,VALID,0.61102,
1999-11-16, 02:47:00,VALID,0.2,VALID,99.4318,VALID,-0.0509425,VALID,18.7956,VALID,231,VALID,0.45484,
1999-11-16, 02:48:00,VALID,0,VALID,99.4191,VALID,-0.101885,VALID,18.7899,VALID,217,VALID,0.388302,
1999-11-16, 02:49:00,VALID,0,VALID,99.4624,VALID,-0.0679233,VALID,18.7862,VALID,175,VALID,0.477734,
1999-11-16, 02:50:00,VALID,0,VALID,99.4916,VALID,-0.0849042,VALID,18.7966,VALID,242,VALID,0.0931332,
1999-11-16, 02:51:00,VALID,0,VALID,99.5018,VALID,0,VALID,18.7896,VALID,100,VALID,1.09971,
1999-11-16, 02:52:00,VALID,0,VALID,99.5107,VALID,-0.0339617,VALID,18.7698,VALID,31,VALID,1.00957,
1999-11-16, 02:53:00,VALID,0,VALID,99.5654,VALID,-0.0509425,VALID,18.7792,VALID,104,VALID,0.657306,
1999-11-16, 02:54:00,VALID,0,VALID,99.5921,VALID,-0.0509425,VALID,18.7924,VALID,188,VALID,0.319901,
1999-11-16, 02:55:00,VALID,0,VALID,99.6061,VALID,-0.0509425,VALID,18.7988,VALID,180,VALID,0.547828,
1999-11-16, 02:56:00,VALID,0,VALID,99.6251,VALID,-0.0509425,VALID,18.8056,VALID,143,VALID,1.0701,
1999-11-16, 02:57:00,VALID,0,VALID,99.6391,VALID,-0.0679233,VALID,18.8053,VALID,211,VALID,0.450195,
1999-11-16, 02:58:00,VALID,0,VALID,99.6633,VALID,-0.0849042,VALID,18.812,VALID,97,VALID,1.17266,
1999-11-16, 02:59:00,VALID,0,VALID,99.7383,VALID,-0.0339617,VALID,18.8279,VALID,100,VALID,0.969984,
1999-11-16, 03:00:00,VALID,0,VALID,99.8032,VALID,-0.0339617,VALID,18.8573,VALID,100,VALID,0.392383,
1999-11-16, 03:01:00,VALID,0,VALID,99.7663,VALID,-0.0339617,VALID,18.8436,VALID,237,VALID,0.870777,
1999-11-16, 03:02:00,VALID,0,VALID,99.7383,VALID,-0.0169808,VALID,18.8245,VALID,193,VALID,0.353002,
1999-11-16, 03:03:00,VALID,0,VALID,99.737,VALID,-0.0339617,VALID,18.7954,VALID,196,VALID,0.358232,
1999-11-16, 03:04:00,VALID,0,VALID,99.7459,VALID,-0.0169808,VALID,18.8058,VALID,125,VALID,0.331292,
1999-11-16, 03:05:00,VALID,0,VALID,99.7917,VALID,-0.0339617,VALID,18.8085,VALID,48,VALID,0.0517578,
1999-11-16, 03:06:00,VALID,0,VALID,99.8019,VALID,-0.0169808,VALID,18.8346,VALID,141,VALID,0.539679,
1999-11-16, 03:07:00,VALID,0,VALID,99.8006,VALID,0,VALID,18.8379,VALID,137,VALID,0.156867,
1999-11-16, 03:08:00,VALID,0,VALID,99.8375,VALID,-0.0339617,VALID,18.8379,VALID,77,VALID,0.336133,
1999-11-16, 03:09:00,VALID,0,VALID,99.8578,VALID,-0.0339617,VALID,18.8402,VALID,120,VALID,0.75739,
1999-11-16, 03:10:00,VALID,0,VALID,99.8629,VALID,-0.0169808,VALID,18.8672,VALID,292,VALID,0.377878,
1999-11-16, 03:11:00,VALID,0,VALID,99.8311,VALID,-0.0169808,VALID,18.8637,VALID,164,VALID,0.750762,
1999-11-16, 03:12:01,VALID,0,VALID,99.7752,VALID,0,VALID,18.8178,VALID,308,VALID,1.03505,
1999-11-16, 03:13:00,VALID,0,VALID,99.7002,VALID,-0.0339617,VALID,18.7668,VALID,31,VALID,1.30488,
1999-11-16, 03:14:00,VALID,0,VALID,99.7714,VALID,-0.0849042,VALID,18.7797,VALID,96,VALID,1.84992,
1999-11-16, 03:15:00,VALID,0,VALID,99.8248,VALID,-0.0169808,VALID,18.7991,VALID,82,VALID,1.75082,
1999-11-16, 03:16:00,VALID,0,VALID,99.8197,VALID,-0.0679233,VALID,18.7921,VALID,59,VALID,0.853711,
1999-11-16, 03:17:00,VALID,0,VALID,99.7917,VALID,-0.0169808,VALID,18.7663,VALID,105,VALID,1.14759,
1999-11-16, 03:18:00,VALID,0,VALID,99.8032,VALID,-0.0509425,VALID,18.7596,VALID,122,VALID,1.25308,
1999-11-16, 03:19:00,VALID,0,VALID,99.8032,VALID,0,VALID,18.7566,VALID,236,VALID,0.715701,
1999-11-16, 03:20:00,VALID,0,VALID,99.8006,VALID,-0.0339617,VALID,18.7601,VALID,159,VALID,0.853463,
1999-11-16, 03:21:00,VALID,0,VALID,99.7917,VALID,0,VALID,18.7437,VALID,154,VALID,1.03242,
1999-11-16, 03:22:00,VALID,0,VALID,99.8146,VALID,-0.0339617,VALID,18.7337,VALID,107,VALID,1.61225,
1999-11-16, 03:23:00,VALID,0,VALID,99.8502,VALID,-0.0509425,VALID,18.7698,VALID,8,VALID,0.892887,
1999-11-16, 03:24:00,VALID,0,VALID,99.8082,VALID,-0.0169808,VALID,18.7762,VALID,86,VALID,0.901758,
1999-11-16, 03:25:00,VALID,0,VALID,99.8057,VALID,0,VALID,18.7536,VALID,345,VALID,0.721073,
1999-11-16, 03:26:00,VALID,0,VALID,99.8133,VALID,0,VALID,18.7506,VALID,250,VALID,0.827714,
1999-11-16, 03:27:00,VALID,0,VALID,99.7879,VALID,-0.0339617,VALID,18.7444,VALID,20,VALID,1.4436,
1999-11-16, 03:28:00,VALID,0,VALID,99.7993,VALID,-0.0339617,VALID,18.731,VALID,92,VALID,1.58361,
1999-11-16, 03:29:00,VALID,0,VALID,99.793,VALID,-0.0339617,VALID,18.7317,VALID,97,VALID,2.12246,
1999-11-16, 03:30:00,VALID,0,VALID,99.7854,VALID,0,VALID,18.7148,VALID,159,VALID,0.761308,
1999-11-16, 03:31:00,VALID,0,VALID,99.7612,VALID,0,VALID,18.7049,VALID,284,VALID,0.833676,
1999-11-16, 03:32:00,VALID,0,VALID,99.7459,VALID,-0.0169808,VALID,18.6919,VALID,290,VALID,0.891016,
1999-11-16, 03:33:00,VALID,0,VALID,99.7625,VALID,-0.0339617,VALID,18.6986,VALID,70,VALID,0.729307,
1999-11-16, 03:34:01,VALID,0,VALID,99.7256,VALID,-0.0169808,VALID,18.6792,VALID,126,VALID,0.572985,
1999-11-16, 03:35:00,VALID,0,VALID,99.7447,VALID,-0.0169808,VALID,18.6755,VALID,251,VALID,0.424924,
1999-11-16, 03:36:00,VALID,0,VALID,99.7675,VALID,0,VALID,18.7049,VALID,88,VALID,0.829392,
1999-11-16, 03:37:00,VALID,0,VALID,99.7612,VALID,-0.0339617,VALID,18.7051,VALID,14,VALID,0.654492,
1999-11-16, 03:38:00,VALID,0,VALID,99.7408,VALID,-0.0509425,VALID,18.7049,VALID,193,VALID,0.847451,
1999-11-16, 03:39:00,VALID,0,VALID,99.6913,VALID,-0.0169808,VALID,18.6922,VALID,250,VALID,1.27426,
1999-11-16, 03:40:00,VALID,0,VALID,99.6696,VALID,-0.0339617,VALID,18.6658,VALID,183,VALID,0.864062,
1999-11-16, 03:41:00,VALID,0,VALID,99.6925,VALID,-0.0509425,VALID,18.6728,VALID,177,VALID,0.783361,
1999-11-16, 03:42:00,VALID,0,VALID,99.7408,VALID,-0.0169808,VALID,18.6892,VALID,202,VALID,0.509868,
1999-11-16, 03:43:00,VALID,0,VALID,99.7192,VALID,-0.0339617,VALID,18.7026,VALID,130,VALID,0.583079,
1999-11-16, 03:44:01,VALID,0,VALID,99.7014,VALID,-0.0679233,VALID,18.6857,VALID,351,VALID,0.631123,
1999-11-16, 03:45:01,VALID,0,VALID,99.6874,VALID,-0.0339617,VALID,18.6691,VALID,143,VALID,0.864648,
1999-11-16, 03:46:00,VALID,0,VALID,99.7014,VALID,-0.0169808,VALID,18.6691,VALID,23,VALID,0.719367,
1999-11-16, 03:47:00,VALID,0,VALID,99.7027,VALID,-0.0849042,VALID,18.6762,VALID,90,VALID,0.773232,
1999-11-16, 03:48:00,VALID,0,VALID,99.718,VALID,-0.0679233,VALID,18.6762,VALID,358,VALID,1.03418,
1999-11-16, 03:49:00,VALID,0,VALID,99.6735,VALID,-0.0339617,VALID,18.6633,VALID,291,VALID,0.644426,
1999-11-16, 03:50:00,VALID,0,VALID,99.6328,VALID,-0.0679233,VALID,18.6439,VALID,227,VALID,0.62315,
1999-11-16, 03:51:00,VALID,0,VALID,99.6556,VALID,-0.0509425,VALID,18.6506,VALID,24,VALID,0.900152,
1999-11-16, 03:52:00,VALID,0,VALID,99.6518,VALID,-0.0169808,VALID,18.6342,VALID,88,VALID,1.55617,
1999-11-16, 03:53:00,VALID,0,VALID,99.7192,VALID,-0.0509425,VALID,18.6469,VALID,78,VALID,1.90566,
1999-11-16, 03:54:00,VALID,0,VALID,99.7078,VALID,-0.0339617,VALID,18.6531,VALID,67,VALID,1.14453,
1999-11-16, 03:55:00,VALID,0,VALID,99.6836,VALID,-0.0169808,VALID,18.6275,VALID,92,VALID,1.77529,
1999-11-16, 03:56:01,VALID,0,VALID,99.7078,VALID,-0.0339617,VALID,18.634,VALID,102,VALID,1.28496,
1999-11-16, 03:57:00,VALID,0,VALID,99.7218,VALID,-0.0339617,VALID,18.6402,VALID,86,VALID,1.26161,
1999-11-16, 03:58:00,VALID,0,VALID,99.6976,VALID,-0.0339617,VALID,18.6208,VALID,271,VALID,0.628495,
1999-11-16, 03:59:00,VALID,0,VALID,99.718,VALID,-0.101885,VALID,18.6245,VALID,80,VALID,1.1069,
1999-11-16, 04:00:00,VALID,0,VALID,99.7599,VALID,-0.0849042,VALID,18.6409,VALID,98,VALID,1.85579,
1999-11-16, 04:01:00,VALID,0,VALID,99.765,VALID,-0.0679233,VALID,18.6407,VALID,78,VALID,1.59668,
1999-11-16, 04:02:00,VALID,0,VALID,99.7459,VALID,-0.0679233,VALID,18.6374,VALID,317,VALID,1.02426,
1999-11-16, 04:03:00,VALID,0,VALID,99.6925,VALID,-0.0339617,VALID,18.6081,VALID,208,VALID,0.962377,